• En España
  • Lista de países
  • Para 7 días
  • Temperatura del agua
  • Mapa Satelital
  • El tiempo en el mapa
  • Informadores
  • user-avatar
    Iniciar sesión

    Tiempo cada hora Encamp

    Hoy, 19 Octubre, Viernes

    Tiempo Temperatura Precipitaciones Viento Presión Humedad
    00:00 +7°C° 0 mm 2 mps 624 mmHg 93%
    01:00 +7°C° 0.1 mm 2 mps 624 mmHg 92%
    02:00 +7°C° 0.1 mm 2 mps 624 mmHg 92%
    03:00 +7°C° 0.1 mm 2 mps 624 mmHg 92%
    04:00 +7°C° 0.1 mm 2 mps 624 mmHg 92%
    05:00 +7°C° 0.1 mm 2 mps 624 mmHg 91%
    06:00 +8°C° 0.1 mm 1 mps 624 mmHg 91%
    07:00 +9°C° 0.1 mm 1 mps 625 mmHg 88%
    08:00 +10°C° 0.1 mm 1 mps 625 mmHg 85%
    09:00 +11°C° 0.1 mm 1 mps 626 mmHg 81%
    10:00 +12°C° 0.4 mm 1 mps 626 mmHg 80%
    11:00 +12°C° 0.4 mm 1 mps 627 mmHg 78%
    12:00 +13°C° 0.4 mm 1 mps 627 mmHg 76%
    13:00 +12°C° 1.8 mm 1 mps 627 mmHg 78%
    14:00 +12°C° 1.8 mm 2 mps 626 mmHg 81%
    15:00 +12°C° 1.8 mm 2 mps 626 mmHg 83%
    16:00 +11°C° 2 mm 1 mps 626 mmHg 86%
    17:00 +10°C° 2 mm 1 mps 626 mmHg 88%
    18:00 +9°C° 2 mm 1 mps 626 mmHg 91%
    19:00 +9°C° 0.9 mm 1 mps 626 mmHg 91%
    20:00 +9°C° 0.9 mm 1 mps 626 mmHg 91%
    21:00 +9°C° 0.9 mm 1 mps 627 mmHg 90%
    22:00 +9°C° 0.4 mm 1 mps 627 mmHg 90%
    23:00 +9°C° 0.4 mm 1 mps 627 mmHg 90%

    Mañana, 20 Octubre, Sábado

    Tiempo Temperatura Precipitaciones Viento Presión Humedad
    00:00 +8°C° 0.4 mm 1 mps 627 mmHg 90%
    01:00 +8°C° 0.1 mm 1 mps 627 mmHg 89%
    02:00 +8°C° 0.1 mm 1 mps 627 mmHg 89%
    03:00 +8°C° 0.1 mm 1 mps 626 mmHg 89%
    04:00 +8°C° 0.1 mm 1 mps 627 mmHg 89%
    05:00 +8°C° 0.1 mm 1 mps 627 mmHg 89%
    06:00 +8°C° 0.1 mm 1 mps 627 mmHg 88%
    07:00 +9°C° 0.2 mm 1 mps 628 mmHg 85%
    08:00 +10°C° 0.2 mm 1 mps 629 mmHg 81%
    09:00 +12°C° 0.2 mm 1 mps 630 mmHg 77%
    10:00 +13°C° 0.5 mm 1 mps 630 mmHg 74%
    11:00 +13°C° 0.5 mm 1 mps 630 mmHg 70%
    12:00 +14°C° 0.5 mm 1 mps 631 mmHg 67%
    13:00 +14°C° 0.9 mm 1 mps 630 mmHg 69%
    14:00 +14°C° 0.9 mm 1 mps 630 mmHg 71%
    15:00 +13°C° 0.9 mm 1 mps 630 mmHg 73%
    16:00 +12°C° 0.8 mm 1 mps 629 mmHg 79%
    17:00 +10°C° 0.8 mm 0 mps 629 mmHg 84%
    18:00 +8°C° 0.8 mm 0 mps 629 mmHg 90%
    19:00 +8°C° 0.2 mm 0 mps 629 mmHg 89%
    20:00 +9°C° 0.2 mm 1 mps 629 mmHg 89%
    21:00 +8°C° 0.2 mm 1 mps 629 mmHg 89%
    22:00 +8°C° 0 mm 1 mps 629 mmHg 89%
    23:00 +8°C° 0 mm 1 mps 629 mmHg 88%

    Pasado mañana, 21 Octubre, Domingo

    Tiempo Temperatura Precipitaciones Viento Presión Humedad
    00:00 +8°C° 0 mm 1 mps 628 mmHg 87%
    01:00 +7°C° 0 mm 1 mps 628 mmHg 86%
    02:00 +7°C° 0 mm 1 mps 628 mmHg 86%
    03:00 +7°C° 0 mm 1 mps 628 mmHg 85%
    04:00 +7°C° 0 mm 1 mps 628 mmHg 85%
    05:00 +7°C° 0 mm 1 mps 628 mmHg 84%
    06:00 +7°C° 0 mm 1 mps 628 mmHg 84%
    07:00 +9°C° 0 mm 1 mps 629 mmHg 78%
    08:00 +10°C° 0 mm 0 mps 630 mmHg 72%
    09:00 +12°C° 0 mm 0 mps 631 mmHg 66%
    10:00 +13°C° 0 mm 0 mps 631 mmHg 62%
    11:00 +15°C° 0 mm 1 mps 631 mmHg 59%
    12:00 +16°C° 0 mm 1 mps 632 mmHg 55%
    13:00 +15°C° 0.1 mm 1 mps 631 mmHg 59%
    14:00 +15°C° 0.1 mm 1 mps 631 mmHg 62%
    15:00 +14°C° 0.1 mm 1 mps 630 mmHg 66%
    16:00 +13°C° 0 mm 1 mps 629 mmHg 72%
    17:00 +11°C° 0 mm 1 mps 629 mmHg 78%
    18:00 +10°C° 0 mm 1 mps 628 mmHg 84%
    19:00 +9°C° 0 mm 1 mps 628 mmHg 85%
    20:00 +9°C° 0 mm 1 mps 628 mmHg 86%
    21:00 +8°C° 0 mm 1 mps 628 mmHg 87%
    22:00 +8°C° 0 mm 1 mps 628 mmHg 87%
    23:00 +8°C° 0 mm 1 mps 628 mmHg 87%

    22 Octubre, Lunes

    Tiempo Temperatura Precipitaciones Viento Presión Humedad
    00:00 +8°C° 0 mm 1 mps 628 mmHg 87%
    01:00 +6°C° 0 mm 2 mps 628 mmHg 86%
    02:00 +6°C° 0 mm 2 mps 627 mmHg 85%
    03:00 +6°C° 0 mm 2 mps 627 mmHg 84%
    04:00 +6°C° 0 mm 2 mps 627 mmHg 82%
    05:00 +5°C° 0 mm 2 mps 627 mmHg 80%
    06:00 +5°C° 0 mm 2 mps 627 mmHg 78%
    07:00 +7°C° 0 mm 2 mps 628 mmHg 72%
    08:00 +9°C° 0 mm 2 mps 629 mmHg 66%
    09:00 +12°C° 0 mm 2 mps 629 mmHg 60%
    10:00 +13°C° 0 mm 2 mps 630 mmHg 55%
    11:00 +13°C° 0 mm 3 mps 630 mmHg 50%
    12:00 +14°C° 0 mm 3 mps 630 mmHg 44%
    13:00 +14°C° 0 mm 3 mps 630 mmHg 47%
    14:00 +13°C° 0 mm 3 mps 630 mmHg 49%
    15:00 +13°C° 0 mm 3 mps 630 mmHg 51%
    16:00 +11°C° 0 mm 3 mps 629 mmHg 60%
    17:00 +9°C° 0 mm 3 mps 629 mmHg 69%
    18:00 +5°C° 0 mm 3 mps 628 mmHg 78%
    19:00 +5°C° 0 mm 3 mps 628 mmHg 76%
    20:00 +4°C° 0 mm 3 mps 628 mmHg 73%
    21:00 +4°C° 0 mm 3 mps 629 mmHg 71%
    22:00 +3°C° 0 mm 3 mps 629 mmHg 70%
    23:00 +3°C° 0 mm 3 mps 629 mmHg 69%

    23 Octubre, Martes

    Tiempo Temperatura Precipitaciones Viento Presión Humedad
    00:00 +3°C° 0 mm 3 mps 629 mmHg 68%
    01:00 +2°C° 0 mm 3 mps 628 mmHg 68%
    02:00 +2°C° 0 mm 3 mps 628 mmHg 68%
    03:00 +2°C° 0 mm 3 mps 628 mmHg 68%
    04:00 +2°C° 0 mm 3 mps 628 mmHg 69%
    05:00 +1°C° 0 mm 3 mps 628 mmHg 70%
    06:00 +1°C° 0 mm 3 mps 628 mmHg 70%
    07:00 +3°C° 0 mm 3 mps 629 mmHg 65%
    08:00 +5°C° 0 mm 3 mps 629 mmHg 61%
    09:00 +7°C° 0 mm 3 mps 630 mmHg 56%
    10:00 +8°C° 0 mm 3 mps 630 mmHg 51%
    11:00 +9°C° 0 mm 3 mps 631 mmHg 47%
    12:00 +11°C° 0 mm 4 mps 631 mmHg 43%
    13:00 +10°C° 0 mm 4 mps 630 mmHg 45%
    14:00 +10°C° 0 mm 4 mps 630 mmHg 47%
    15:00 +8°C° 0 mm 4 mps 629 mmHg 49%
    16:00 +6°C° 0 mm 4 mps 629 mmHg 58%
    17:00 +4°C° 0 mm 3 mps 628 mmHg 66%
    18:00 +2°C° 0 mm 3 mps 628 mmHg 75%
    19:00 +2°C° 0 mm 3 mps 628 mmHg 74%
    20:00 +1°C° 0 mm 3 mps 628 mmHg 73%
    21:00 +1°C° 0 mm 3 mps 628 mmHg 72%
    22:00 +1°C° 0 mm 3 mps 628 mmHg 70%
    23:00 +1°C° 0 mm 3 mps 628 mmHg 68%

    24 Octubre, Miércoles

    Tiempo Temperatura Precipitaciones Viento Presión Humedad
    00:00 +1°C° 0 mm 3 mps 628 mmHg 66%
    01:00 +1°C° 0 mm 3 mps 628 mmHg 65%
    02:00 0°C° 0 mm 3 mps 628 mmHg 64%
    03:00 0°C° 0 mm 3 mps 628 mmHg 63%
    04:00 0°C° 0 mm 3 mps 628 mmHg 63%
    05:00 +1°C° 0 mm 3 mps 628 mmHg 64%
    06:00 +1°C° 0 mm 3 mps 628 mmHg 64%
    07:00 +3°C° 0 mm 3 mps 629 mmHg 59%
    08:00 +5°C° 0 mm 3 mps 630 mmHg 55%
    09:00 +8°C° 0 mm 3 mps 631 mmHg 51%
    10:00 +9°C° 0 mm 3 mps 631 mmHg 49%
    11:00 +10°C° 0 mm 3 mps 631 mmHg 47%
    12:00 +11°C° 0 mm 3 mps 632 mmHg 45%
    13:00 +11°C° 0 mm 3 mps 631 mmHg 47%
    14:00 +11°C° 0 mm 3 mps 631 mmHg 49%
    15:00 +11°C° 0 mm 3 mps 631 mmHg 51%
    16:00 +9°C° 0 mm 3 mps 630 mmHg 58%
    17:00 +7°C° 0 mm 3 mps 629 mmHg 66%
    18:00 +4°C° 0 mm 3 mps 629 mmHg 73%
    19:00 +4°C° 0 mm 3 mps 629 mmHg 73%
    20:00 +4°C° 0 mm 3 mps 629 mmHg 73%
    21:00 +4°C° 0 mm 3 mps 629 mmHg 73%
    22:00 +4°C° 0 mm 3 mps 629 mmHg 73%
    23:00 +4°C° 0 mm 3 mps 628 mmHg 73%
    Mostrar más